Wind_Speed
20 25 27 24 23 21 19 19 20 21 22 22 22 22 22 21 20 20 21 21 21 21 21 19 17 16 16 16 15 16 16 17 19 20 20 17 16 15 15 16 16 16 16 16 17 16 15 14 14 14 14 14 14 14 12 12 12 13 14 14 14 14 14 15 16 16 16 18 18 17 18 18 19 18 19 18 18 20 19 17 16 17 17 18 18
21 25 26 24 23 21 20 20 20 22 22 22 22 21 22 21 21 21 21 21 21 21 21 19 16 16 15 15 15 16 17 17 18 19 18 16 14 13 14 14 15 15 14 15 15 15 14 14 14 13 13 13 14 13 12 13 12 12 12 12 11 12 13 14 16 18 18 19 19 19 20 19 19 19 20 20 20 21 20 18 17 18 18 18 20
22 24 25 24 22 21 20 20 21 21 21 21 21 22 22 22 21 21 21 21 21 21 20 18 16 15 14 14 14 15 17 17 17 17 16 15 13 12 12 13 14 14 13 13 14 13 13 13 13 12 12 12 14 13 12 12 12 12 10 10 11 13 14 14 15 17 19 20 22 22 21 20 20 18 20 22 21 21 20 19 18 18 18 18 20
22 23 25 23 21 20 20 21 21 21 21 21 21 22 22 22 22 21 21 21 21 21 19 17 15 15 13 13 13 14 15 16 15 15 14 13 12 12 12 13 14 14 13 13 13 12 12 12 12 12 12 13 13 12 12 11 11 11 11 13 15 16 15 15 14 15 17 18 20 21 21 21 19 18 19 21 19 19 19 19 17 17 18 19 20
22 23 25 23 20 20 20 21 21 21 21 21 22 22 22 22 21 21 21 22 21 21 18 16 15 14 13 12 12 13 14 15 15 14 13 12 12 12 12 12 13 13 12 12 12 12 11 11 11 11 12 12 12 11 11 11 9 10 14 16 17 17 16 15 14 13 12 11 13 16 18 20 18 18 18 19 18 18 18 18 17 17 16 16 18
21 23 24 22 19 18 20 21 21 21 21 21 22 22 22 22 21 22 22 22 21 19 17 15 14 13 13 12 12 13 13 14 14 14 12 11 11 11 11 11 12 12 11 11 11 11 10 10 10 11 12 12 12 11 10 9 8 12 17 18 18 17 15 14 13 11 9 7 9 13 15 17 17 17 16 17 18 18 18 17 16 16 15 15 17
21 23 22 21 18 18 21 21 20 21 21 22 22 22 22 22 22 23 22 21 19 17 16 14 13 12 12 11 11 12 13 13 14 13 12 11 10 10 10 10 11 11 10 10 10 10 10 10 9 10 10 11 12 10 9 8 9 15 18 18 17 15 13 12 10 9 8 6 8 12 14 15 16 17 15 15 18 18 17 17 16 16 16 16 15
21 20 20 21 18 20 23 21 21 21 21 22 22 22 22 23 23 23 22 20 18 16 15 13 13 12 12 12 12 12 13 13 14 14 13 12 10 10 10 9 9 9 9 9 9 9 9 9 8 9 10 11 11 10 8 8 13 17 17 16 14 13 12 11 10 8 7 9 11 14 15 15 16 16 15 15 17 17 17 17 17 16 16 15 13
21 19 19 19 18 22 23 21 21 21 21 22 22 22 22 24 23 22 21 19 17 15 14 13 13 13 13 13 13 13 13 12 14 15 14 13 12 12 11 11 10 9 9 9 9 9 9 8 8 8 9 11 10 9 8 9 14 16 14 14 12 12 11 11 11 12 12 12 14 17 16 16 16 16 15 15 15 14 15 16 17 17 16 16 15
22 19 19 18 20 23 22 22 22 21 22 22 23 23 23 23 23 22 20 18 15 15 14 14 14 13 12 12 12 11 12 12 13 14 14 13 13 12 11 12 10 10 10 9 9 9 9 8 8 8 10 10 9 8 8 10 14 14 12 12 11 11 11 10 11 14 16 12 13 16 17 16 16 16 14 14 13 13 16 18 18 18 17 17 17
22 20 18 20 23 23 22 22 22 22 22 23 23 23 23 23 22 20 18 16 15 15 15 14 13 12 11 10 10 10 11 13 13 13 13 13 12 12 11 11 10 10 10 10 9 9 8 8 8 9 9 8 7 7 8 10 12 12 11 10 10 10 10 10 10 13 14 13 16 16 16 17 16 15 14 13 13 15 17 18 18 17 17 17 17
21 21 19 23 24 24 24 23 23 23 22 22 23 23 22 21 20 18 17 16 16 16 15 14 13 11 10 10 9 10 11 12 13 12 12 13 13 12 11 10 10 10 10 10 9 8 8 7 7 7 6 6 7 7 8 9 10 10 9 9 10 9 9 9 10 12 12 13 17 16 17 17 15 13 13 13 14 16 17 16 17 17 16 16 16
22 21 21 25 24 24 24 23 23 22 21 21 22 22 20 19 18 17 16 16 16 16 15 14 12 11 10 10 9 9 10 11 12 12 12 13 12 11 11 11 11 10 11 10 8 9 8 7 7 6 5 6 6 6 6 6 7 8 8 8 8 7 7 9 11 12 11 13 15 16 17 16 14 12 12 13 14 15 16 16 16 16 16 16 15
25 23 24 25 22 23 24 23 23 21 21 21 20 20 19 18 17 17 17 17 17 16 15 14 13 12 10 10 10 10 9 10 11 11 11 11 11 11 10 10 10 10 11 9 8 9 8 7 6 6 6 7 6 3 3 4 4 5 7 8 7 6 6 9 11 11 12 15 16 14 16 16 14 12 12 11 12 13 15 15 15 15 15 15 15
25 24 26 26 21 21 23 22 21 21 20 20 20 20 19 18 17 18 18 17 16 15 14 13 13 12 11 11 11 11 10 10 10 11 11 11 11 11 9 9 9 9 10 9 8 9 8 7 6 6 6 6 6 4 2 2 2 3 6 8 7 6 7 9 11 11 11 14 15 13 15 16 12 11 12 11 11 12 13 14 14 15 14 15 14
24 23 25 26 22 21 21 20 21 20 20 20 20 20 20 19 19 19 18 17 15 14 13 13 13 12 12 12 12 12 12 10 11 12 12 12 11 10 9 8 8 9 9 8 8 8 8 7 6 6 5 5 5 4 3 3 2 2 4 7 6 6 7 9 11 10 9 12 14 14 15 15 11 11 12 12 12 13 12 12 14 14 14 14 14
22 23 24 25 22 22 20 18 19 19 20 20 20 20 20 19 19 18 17 16 14 13 13 12 12 12 12 12 12 12 12 11 11 12 11 11 10 9 8 7 7 8 8 8 7 6 6 5 4 4 5 5 5 5 5 4 2 2 3 6 7 7 7 10 12 10 11 16 16 14 15 14 13 12 12 12 12 12 12 12 13 13 13 13 13
21 22 23 24 22 21 21 19 19 18 18 20 20 20 20 20 18 18 16 14 13 13 12 11 11 12 11 12 12 12 12 11 11 10 9 9 9 8 7 6 6 6 7 6 5 4 4 4 4 4 6 6 6 6 6 5 3 3 4 8 8 7 8 11 12 11 13 18 16 13 14 13 12 11 11 11 11 11 11 11 12 12 13 13 13
20 22 23 24 22 21 22 21 20 19 18 19 19 18 19 19 17 16 15 14 13 12 12 11 11 11 11 11 11 11 11 11 10 9 8 8 7 7 6 6 5 5 4 4 3 2 2 3 4 5 5 6 7 7 6 5 4 4 7 10 8 7 7 8 9 10 11 13 12 12 12 10 11 11 11 11 11 10 10 10 11 12 12 11 12
18 21 22 22 24 25 25 22 21 21 19 18 18 18 17 17 17 15 15 14 13 12 12 11 12 12 12 11 11 11 10 9 8 7 7 7 6 6 6 6 5 3 3 3 3 2 1 1 2 3 4 6 7 8 6 5 4 5 10 11 8 7 8 8 9 9 7 9 8 10 10 9 12 12 11 11 10 10 9 9 10 11 11 10 11
16 18 18 21 25 26 25 23 22 21 19 18 19 19 18 17 16 15 15 14 13 13 13 13 13 13 12 12 11 11 9 8 6 6 6 6 6 5 5 5 4 3 2 2 2 1 1 1 1 1 2 4 7 8 7 6 5 6 11 12 8 8 10 8 10 10 10 10 8 10 9 10 14 13 11 11 10 10 10 9 8 8 9 10 10
16 17 17 19 22 23 24 24 22 21 20 18 19 20 20 19 17 16 15 14 14 14 14 15 14 13 13 12 12 11 9 8 6 5 5 5 5 5 5 4 4 3 2 1 0 1 2 3 3 2 0 2 6 7 6 6 6 6 11 12 8 8 8 6 8 11 11 10 8 10 9 11 14 13 11 10 10 10 10 9 7 7 8 9 10
17 18 19 17 18 20 23 24 21 21 21 19 20 22 21 20 18 17 16 15 16 15 15 16 15 15 15 14 12 10 10 10 8 6 5 5 5 5 5 5 4 3 1 1 2 3 3 3 3 2 1 3 6 6 5 4 5 7 10 12 8 6 5 5 6 7 8 7 8 9 9 12 14 12 12 10 9 10 9 8 6 7 8 8 9
15 18 18 16 18 20 22 23 22 22 21 20 23 23 22 21 18 17 17 17 16 15 15 17 17 16 15 14 13 10 11 11 9 8 7 5 5 6 5 5 4 3 2 1 2 3 3 2 1 1 3 5 6 6 7 6 5 7 10 12 8 6 7 8 8 9 9 7 8 8 9 14 14 12 12 9 9 10 9 8 6 7 7 8 9
15 17 17 17 20 21 22 24 24 23 21 22 24 23 22 20 18 19 18 18 17 15 15 16 16 16 14 14 14 13 13 12 10 10 9 7 5 5 5 5 5 5 4 3 4 4 3 3 2 3 3 4 6 7 10 10 7 7 9 11 8 8 9 9 10 10 10 8 7 7 10 14 14 12 11 10 9 9 8 8 6 6 7 8 9
15 16 17 18 19 21 24 26 24 23 23 22 21 22 22 18 18 20 18 17 16 15 14 14 14 14 14 13 14 14 13 13 13 12 10 10 9 7 6 7 8 7 8 7 7 5 4 5 4 6 7 8 10 9 9 9 9 8 8 10 10 10 10 9 11 10 8 7 7 8 11 15 14 11 11 11 10 9 8 7 5 6 8 8 10
15 15 18 19 21 22 25 26 23 23 22 20 18 20 19 17 19 18 16 15 14 13 14 14 14 13 13 13 13 14 15 16 16 14 11 11 12 11 9 9 9 9 8 7 8 7 5 6 7 8 8 9 8 6 7 7 8 10 10 11 11 12 9 10 12 10 8 7 8 10 12 15 14 11 11 11 10 9 8 7 6 7 8 8 9
15 16 18 21 23 22 24 26 22 21 21 20 19 19 17 15 17 14 13 14 13 14 14 12 14 14 13 13 13 13 16 16 15 14 12 12 12 11 10 9 8 7 7 5 6 8 7 7 8 9 8 7 7 6 6 7 7 8 10 12 12 12 11 12 12 10 9 9 10 12 13 14 14 12 10 10 10 10 8 7 7 7 7 6 8
14 16 18 21 20 18 22 25 21 19 22 22 19 18 16 14 13 11 12 13 13 15 14 12 14 15 13 14 13 11 13 13 11 10 10 11 9 8 9 9 6 4 5 4 3 7 9 8 9 10 7 6 7 6 6 7 7 7 8 11 11 10 11 13 14 11 9 10 12 12 14 14 14 13 11 10 9 10 9 8 7 7 6 5 7
15 16 18 19 16 14 20 23 19 19 22 21 17 17 17 15 14 15 13 13 14 14 13 13 13 13 12 13 13 11 12 12 11 8 7 7 6 6 6 7 6 3 5 6 3 5 9 9 9 9 7 6 6 4 4 5 7 8 6 8 11 7 10 12 13 14 11 10 11 13 13 13 13 14 13 10 9 9 9 8 8 7 6 4 5
15 16 18 21 19 16 18 20 20 21 20 17 16 17 16 14 15 15 13 13 13 13 13 12 12 11 11 12 12 11 11 13 12 9 7 6 6 6 5 4 5 4 6 6 4 5 7 8 8 8 7 6 6 4 3 5 5 8 7 6 11 8 11 14 15 14 10 8 10 13 12 11 12 13 13 11 10 9 8 8 7 7 6 5 4
15 15 20 23 20 19 19 20 20 20 17 16 16 15 14 13 15 14 12 13 12 13 12 11 11 11 11 12 10 9 10 11 11 10 9 7 6 7 6 5 5 6 7 6 5 5 7 7 7 8 8 6 6 5 2 5 5 7 8 7 9 9 8 13 15 12 11 9 10 12 12 11 11 11 12 12 12 10 8 8 7 6 6 6 4
14 13 20 21 20 21 22 20 19 17 15 16 15 15 14 13 14 14 13 14 13 12 11 10 10 10 9 9 8 8 9 9 10 11 10 8 8 8 8 9 8 7 7 6 6 6 7 7 7 8 8 6 7 5 2 5 8 7 6 6 7 6 8 13 13 14 16 15 12 12 12 12 12 11 10 10 12 12 9 8 7 6 6 6 5
15 15 21 21 20 22 22 20 19 17 16 17 16 15 13 11 12 14 15 15 13 12 11 10 9 7 7 7 6 7 8 8 10 10 9 9 12 12 10 11 10 8 8 7 6 7 7 7 7 8 7 6 6 4 3 4 6 8 8 3 4 6 11 15 13 13 17 17 14 13 12 11 11 11 10 10 11 12 11 9 7 7 6 6 5
19 20 23 20 21 23 21 19 20 19 18 18 17 14 11 10 12 13 13 12 11 11 10 9 8 7 7 7 7 7 8 9 9 9 8 10 13 13 12 12 10 9 9 8 7 7 8 8 9 9 7 6 6 5 3 2 2 6 13 10 10 9 14 17 14 13 15 16 16 14 12 10 10 9 9 9 10 10 9 8 7 7 7 7 6
21 22 24 22 22 23 20 19 22 22 19 17 17 16 13 12 12 11 10 9 8 7 6 7 7 6 6 5 6 6 7 8 8 8 9 11 12 11 11 12 10 9 9 8 8 9 10 10 10 9 7 5 5 5 2 1 3 8 10 8 11 10 13 17 15 13 12 13 15 13 11 10 10 10 9 8 8 9 8 7 6 6 6 6 7
21 22 24 23 22 22 21 22 24 23 21 20 21 21 17 15 14 11 8 7 6 5 5 6 4 4 5 4 6 7 7 8 9 9 10 12 13 11 10 12 11 9 9 8 8 9 10 10 10 8 6 5 4 4 0 1 3 7 4 2 7 8 11 15 15 14 12 12 13 11 9 9 9 9 9 8 8 9 9 8 7 6 5 5 5
21 24 25 23 22 21 22 23 23 22 21 21 22 21 19 16 15 11 7 6 5 6 6 5 4 3 4 5 6 7 7 8 9 8 10 13 13 10 10 12 12 10 10 9 7 8 9 10 10 8 7 5 3 3 2 3 4 4 1 3 4 7 10 13 12 13 13 12 11 9 8 8 8 8 8 7 7 7 8 7 6 6 5 4 3
23 26 26 25 22 20 22 23 22 23 20 20 20 18 17 15 14 12 9 8 6 6 5 3 3 3 4 5 7 8 8 9 9 9 10 12 10 9 10 11 12 12 11 10 10 10 9 9 8 7 6 2 2 2 1 5 7 5 3 6 5 6 8 11 10 10 12 10 8 8 8 7 7 8 8 8 7 7 7 6 6 6 5 4 3
25 27 25 24 23 21 23 20 19 23 21 20 20 18 16 15 15 14 10 8 5 4 3 4 4 5 5 6 7 7 8 9 9 10 10 10 9 10 11 11 11 12 11 11 12 10 9 8 7 6 4 2 1 1 2 6 10 9 6 7 5 5 6 9 10 9 9 9 6 7 7 7 8 9 9 9 8 8 7 7 7 6 6 5 5
26 26 24 24 24 22 21 17 17 21 21 20 19 18 18 16 14 11 9 8 8 7 7 6 6 5 5 6 6 6 7 7 8 9 9 10 10 11 11 11 11 11 10 10 10 9 8 7 6 5 3 3 3 3 3 7 10 9 6 5 1 6 6 7 8 7 9 10 8 8 6 5 8 9 7 8 8 7 7 7 7 7 7 6 6
25 25 24 24 25 24 21 18 18 20 20 19 17 16 15 13 12 10 11 11 10 10 8 6 6 5 5 6 6 6 6 6 6 8 8 9 9 10 11 12 11 10 10 9 8 8 6 5 5 4 2 2 3 4 5 7 9 9 7 2 4 5 7 6 6 6 7 8 9 11 8 4 6 8 8 8 8 7 7 7 7 7 6 6 6
23 23 23 23 24 25 22 20 19 18 17 18 17 14 10 8 11 12 13 12 10 11 9 6 6 6 5 5 5 6 6 6 7 8 7 8 10 9 10 11 11 11 10 9 8 8 7 6 5 4 3 3 3 5 7 7 8 10 8 3 2 2 4 5 5 6 6 6 7 10 9 5 7 9 9 8 7 9 10 9 9 9 8 8 8
20 21 21 21 22 24 23 20 19 17 18 19 16 12 10 8 8 12 14 12 12 13 10 8 8 8 7 6 6 5 5 5 6 7 7 7 9 8 9 9 9 9 9 9 8 7 7 8 7 6 5 5 4 5 7 7 8 9 6 3 1 1 1 2 5 6 6 6 9 10 10 10 10 10 9 9 10 11 12 12 11 10 10 10 11
16 15 13 15 21 22 21 20 17 17 19 18 13 12 15 11 7 12 15 12 12 11 10 10 9 8 8 7 6 6 5 5 5 6 7 7 7 7 8 9 8 8 9 8 8 7 7 8 8 7 7 6 5 5 6 8 8 8 5 4 2 0 1 3 5 5 5 7 11 10 11 14 13 11 11 12 12 13 14 13 12 12 12 12 11
12 14 12 15 20 18 18 17 14 17 19 17 15 15 19 14 6 10 14 11 11 10 9 10 9 9 9 8 7 6 6 6 5 6 7 6 6 6 7 8 7 7 7 7 8 8 8 8 9 9 7 6 6 5 5 7 8 7 6 5 2 1 5 5 3 2 4 8 9 8 11 15 14 13 13 13 12 12 13 13 13 13 13 11 10
20 20 21 21 20 16 15 16 15 19 22 20 18 18 21 15 4 6 11 10 10 11 9 9 8 8 9 8 7 7 6 6 6 6 6 5 6 5 5 7 7 6 6 6 6 7 7 7 9 9 7 7 9 8 6 5 6 6 6 4 3 5 9 7 3 3 4 5 10 13 14 15 16 15 14 14 13 12 14 15 14 14 13 11 10
22 24 27 27 24 20 19 19 20 24 24 22 21 19 20 14 1 6 9 11 9 11 9 8 8 8 8 7 7 7 6 6 6 6 6 6 5 5 3 4 4 5 7 7 5 5 4 6 7 7 6 6 8 8 8 7 7 6 6 6 6 7 8 6 5 6 5 4 7 13 15 17 19 17 15 15 13 12 15 15 13 14 14 12 9
23 26 29 30 28 25 25 25 24 25 25 22 21 19 18 15 2 15 7 11 10 10 10 8 9 8 7 7 7 7 6 6 6 5 6 6 5 5 4 3 4 4 7 6 5 4 4 5 6 6 5 6 7 8 10 10 8 8 8 6 5 6 6 5 7 7 6 5 4 5 9 13 15 15 14 14 13 13 15 15 13 12 10 10 9
19 26 27 29 30 28 29 29 27 25 25 23 22 22 20 18 9 12 6 12 11 10 10 9 9 8 6 6 6 6 5 5 6 5 6 6 5 6 7 6 6 7 8 7 6 5 5 5 5 5 6 8 8 9 10 8 7 9 8 6 6 6 5 5 4 5 6 5 6 6 9 10 9 10 13 14 14 13 13 14 15 12 8 8 9
9 18 24 28 31 32 32 32 32 30 28 25 24 24 21 18 16 8 7 11 10 10 11 9 9 8 7 6 6 6 6 6 5 5 6 6 7 8 8 8 7 7 7 6 6 6 6 6 7 6 7 7 8 10 12 10 9 8 6 8 8 7 6 5 6 7 5 4 6 6 9 13 11 11 13 15 15 14 13 13 13 12 8 6 7
Wind_Direction
133 144 147 149 149 151 152 152 157 160 162 161 160 159 156 152 148 145 143 144 145 143 140 135 129 126 126 123 118 113 112 117 121 124 123 118 113 111 109 110 109 107 105 104 103 105 104 100 96 94 92 89 86 85 89 90 89 88 87 88 88 86 84 84 91 95 94 91 90 85 75 70 66 63 60 57 64 69 68 75 80 73 64 59 68
134 143 148 150 150 150 152 153 157 161 162 162 161 159 155 151 148 146 144 145 144 143 141 136 133 131 129 127 125 119 118 122 125 128 128 124 117 113 112 112 112 109 109 109 107 106 104 100 98 98 95 96 93 88 94 96 93 95 93 93 90 86 86 86 90 92 94 90 89 88 80 72 66 68 65 62 66 66 66 74 78 76 69 61 64
132 141 148 150 149 151 152 154 158 161 161 161 160 157 154 150 148 146 145 145 144 144 142 139 138 137 134 130 130 127 124 127 129 131 130 127 122 117 114 114 114 111 109 109 109 105 102 101 98 96 95 99 99 91 92 95 94 95 93 94 93 95 95 93 95 96 98 92 84 82 79 73 67 69 69 67 69 68 67 72 75 75 73 69 66
128 138 148 149 150 152 150 154 158 161 160 160 158 155 153 151 149 147 146 145 145 145 144 144 142 140 136 132 134 135 131 130 131 131 130 128 126 122 119 118 117 116 113 109 110 107 104 103 101 98 97 100 102 97 93 94 95 92 90 96 101 102 100 99 101 102 107 100 83 78 75 73 70 69 68 69 70 71 70 72 74 76 75 72 70
127 138 146 145 147 149 149 154 158 159 158 158 156 155 153 151 150 147 146 146 147 148 148 146 143 141 137 135 137 139 137 133 132 131 130 129 129 127 123 122 119 118 118 116 114 111 108 106 104 100 101 105 105 100 97 98 99 99 99 102 104 101 96 94 96 98 109 105 80 77 75 73 72 66 65 67 70 73 73 74 75 78 76 71 73
128 136 142 141 141 146 150 154 157 159 157 157 154 154 153 152 151 149 149 148 149 150 149 146 142 140 137 137 136 138 138 135 132 130 130 129 130 128 125 124 120 116 117 119 117 113 112 110 105 100 102 106 107 102 100 105 106 108 107 104 101 98 94 89 87 84 91 94 77 82 80 75 76 67 63 67 71 75 75 74 75 74 74 78 77
128 132 137 138 138 146 152 152 153 156 156 156 155 155 154 154 152 151 151 150 150 150 148 144 141 139 137 137 135 134 137 137 133 130 129 127 124 122 122 123 118 114 116 120 119 117 115 114 109 103 105 108 109 102 99 111 111 111 109 104 102 99 96 91 87 79 80 73 69 94 92 82 81 71 64 69 74 75 75 74 75 76 77 84 81
129 131 133 137 140 148 150 148 150 153 154 154 154 154 154 154 152 152 152 151 151 149 147 144 141 140 137 134 129 127 132 139 136 133 132 128 125 121 118 116 114 114 117 121 122 121 119 118 113 110 111 111 110 104 104 113 111 113 112 107 106 101 96 89 80 65 62 56 65 99 99 86 83 74 68 73 79 75 75 77 76 77 78 79 78
132 132 132 137 141 148 149 147 150 152 152 152 153 153 153 154 153 153 152 152 151 149 147 144 143 141 138 132 125 122 124 134 140 140 139 136 135 132 126 120 117 122 124 122 123 125 123 121 119 116 114 113 114 109 107 111 113 116 115 110 106 100 94 85 77 64 60 63 80 100 96 87 84 79 75 77 81 72 72 79 78 78 78 76 77
135 133 133 141 145 149 150 149 151 151 152 152 153 153 154 155 154 154 153 153 151 149 147 145 146 144 140 132 127 124 123 130 140 144 144 143 142 141 138 136 133 132 131 122 121 125 124 126 129 121 116 119 120 114 108 111 116 120 117 111 104 98 90 79 77 75 74 78 91 96 91 86 82 80 79 78 74 64 71 81 82 80 79 78 79
137 134 139 148 147 150 151 150 151 150 152 152 153 154 154 155 155 156 155 153 150 149 148 148 147 144 139 131 130 131 133 137 140 145 146 143 140 140 140 146 147 142 138 127 121 122 128 138 137 127 124 127 125 116 109 114 119 121 118 112 105 95 84 73 68 77 82 90 92 88 84 81 78 81 86 80 68 68 78 83 82 82 79 80 81
136 134 145 152 148 152 151 151 151 150 151 151 153 154 155 156 157 158 156 153 152 151 149 148 145 142 139 134 134 135 143 145 144 146 146 141 135 132 129 135 141 143 146 136 126 126 136 147 142 136 137 137 128 115 108 114 118 119 119 114 106 91 79 69 65 78 88 97 96 90 85 83 82 85 88 76 68 76 83 84 83 82 81 81 81
134 135 149 152 149 152 152 152 153 152 151 152 155 156 158 160 161 160 156 155 153 152 148 146 144 142 139 135 135 135 145 150 151 151 149 144 136 130 123 124 129 133 139 138 138 141 145 146 141 139 143 146 136 113 107 118 116 118 123 117 108 93 76 64 62 74 91 99 96 92 87 85 84 85 85 73 68 76 82 84 83 82 82 83 82
133 139 150 150 145 150 152 152 153 153 154 156 159 159 163 163 162 159 155 154 152 151 149 147 147 141 135 130 130 130 137 148 153 154 153 147 138 132 123 123 127 129 134 135 142 150 160 157 144 133 138 154 157 130 116 131 121 117 125 125 117 99 75 67 68 76 94 101 96 92 90 90 90 85 82 74 69 74 82 85 84 84 84 84 84
131 137 145 147 142 146 149 149 150 152 157 158 159 161 163 162 159 155 152 152 151 151 150 149 147 140 133 126 124 124 126 135 139 143 150 145 135 130 124 125 130 136 139 137 138 149 162 162 156 150 153 170 179 178 168 156 129 111 123 131 124 102 77 66 76 86 99 106 100 93 94 99 99 89 83 77 76 79 81 83 84 86 84 85 85
125 130 141 147 140 143 146 147 151 154 159 159 159 161 160 158 155 153 152 153 153 151 149 147 143 137 132 124 122 121 118 124 128 133 143 140 130 126 129 129 134 140 143 140 140 149 154 157 170 179 183 188 191 194 193 181 152 126 128 136 129 105 80 67 78 94 114 115 106 97 95 100 95 86 89 88 86 86 82 79 84 88 85 86 86
125 130 139 143 137 142 145 147 154 157 159 160 161 160 157 155 153 154 155 155 153 148 146 144 139 133 128 123 121 118 117 120 125 130 138 137 130 130 134 134 140 145 147 147 148 154 158 169 191 203 200 200 206 204 191 185 177 172 150 142 129 100 78 72 74 84 114 116 110 103 99 103 99 91 95 95 92 92 87 81 84 88 87 87 86
129 131 134 137 135 139 147 153 158 156 157 161 159 156 155 155 156 158 158 156 153 147 145 142 136 130 125 123 122 120 121 123 123 130 140 141 136 136 139 143 149 150 152 155 156 158 162 185 211 215 209 208 207 202 191 183 179 178 159 144 128 104 87 83 85 91 110 116 114 108 105 113 112 102 101 100 99 99 94 88 86 86 87 89 89
129 134 134 134 133 141 156 159 159 158 160 160 153 153 157 158 159 160 158 156 153 147 143 140 133 130 128 126 123 122 124 122 122 133 143 145 140 140 146 151 154 157 160 158 156 158 166 194 217 220 219 213 200 193 191 183 175 164 156 147 130 110 88 81 105 113 111 114 110 102 105 118 115 109 110 107 105 102 96 92 90 89 88 88 90
129 134 134 135 142 156 162 157 161 165 162 155 149 154 160 161 161 159 158 153 149 147 142 136 133 133 131 125 118 115 115 116 121 131 139 142 142 148 152 153 154 161 167 159 150 148 168 213 232 229 224 219 207 197 191 181 171 157 154 148 136 109 77 71 108 122 118 117 107 97 107 115 112 115 116 112 109 106 99 93 90 88 85 84 89
128 133 136 144 155 164 159 155 165 169 163 152 147 158 163 162 161 157 154 149 144 141 136 131 129 127 122 117 108 102 104 107 119 134 139 147 153 156 153 149 149 157 166 158 146 129 55 355 332 278 240 225 219 211 199 186 171 157 158 152 139 105 83 82 110 122 123 119 106 101 111 112 114 122 121 116 114 111 105 101 94 81 77 79 85
141 140 142 155 164 163 154 159 169 168 164 152 150 166 168 160 158 156 151 148 142 135 133 131 125 120 118 117 112 112 124 133 140 145 148 160 164 162 158 153 147 146 151 129 79 44 30 7 356 354 282 222 213 212 208 196 180 164 166 164 144 103 96 106 116 120 118 112 106 110 116 116 121 127 123 119 117 116 110 107 100 77 76 80 80
153 142 145 160 162 156 154 162 168 167 165 155 160 173 170 159 158 156 152 151 142 140 141 133 127 128 127 127 127 133 150 153 153 156 165 177 172 169 164 153 145 131 110 31 348 340 359 10 10 27 137 188 186 185 201 214 197 178 176 176 157 113 127 153 138 131 128 118 111 118 123 123 129 131 126 124 121 120 115 109 100 77 76 79 77
155 143 150 156 147 148 152 160 166 166 164 157 166 175 169 161 160 160 156 151 146 148 147 137 135 137 134 137 145 151 157 155 156 167 176 184 181 175 168 155 147 130 108 30 318 301 306 341 16 171 170 175 180 183 200 215 216 201 188 181 165 147 171 165 149 144 142 131 113 124 133 130 133 134 129 128 128 125 118 113 102 81 77 79 79
153 145 149 145 139 146 152 162 168 166 162 155 165 173 168 164 167 166 157 149 151 151 146 143 143 143 142 144 154 160 162 163 169 178 178 175 179 179 172 160 156 149 149 189 235 237 249 268 289 262 246 231 248 252 226 208 203 215 196 184 181 183 185 165 152 146 140 128 115 135 141 136 136 135 132 130 133 129 121 121 104 85 86 84 82
152 146 139 135 137 150 160 164 164 162 159 155 163 170 168 172 173 166 156 152 151 144 143 152 151 152 155 147 153 164 170 177 182 187 184 174 175 178 173 172 180 177 172 198 224 217 219 233 250 261 275 280 272 270 248 210 195 208 199 191 193 192 183 163 161 156 148 131 124 148 147 140 138 135 135 132 135 134 130 129 103 85 96 91 84
150 144 130 129 136 153 167 163 159 161 159 159 165 168 172 177 171 165 156 146 137 137 150 163 161 161 163 153 159 173 177 182 185 186 185 182 181 182 178 187 202 197 189 211 226 216 211 215 226 238 256 281 275 262 249 227 208 205 200 198 194 193 183 158 164 160 152 143 136 150 150 143 139 138 140 135 135 135 133 130 104 89 100 96 85
149 144 130 133 142 158 167 159 156 160 161 167 167 169 176 170 165 161 144 134 140 156 163 167 168 166 166 161 163 173 177 180 180 180 188 191 191 194 194 201 212 210 203 215 236 231 222 215 224 232 238 264 266 250 241 237 228 214 205 201 191 195 187 150 150 155 146 138 139 149 153 149 143 144 145 139 140 138 134 128 112 101 111 106 88
146 144 133 136 150 162 160 154 151 154 163 168 165 167 172 165 155 136 125 141 162 170 167 166 169 168 168 169 166 165 175 180 175 180 192 190 195 207 206 206 203 212 206 193 234 230 220 222 226 228 230 246 256 253 245 234 229 230 214 201 197 196 177 144 130 135 138 129 136 150 157 157 149 146 147 144 145 142 137 132 125 116 119 119 95
147 140 130 134 146 145 150 157 151 150 161 164 161 159 161 162 144 126 132 153 161 164 172 173 168 168 170 175 177 173 175 179 173 179 193 189 197 199 196 202 198 211 206 196 210 206 208 218 217 221 227 230 234 230 239 240 226 232 226 198 203 178 136 147 135 122 128 127 132 149 161 165 158 151 149 149 149 145 140 136 132 125 125 128 102
137 126 121 126 137 141 151 161 152 148 156 155 155 153 157 159 139 134 147 154 157 162 172 175 171 176 179 180 191 187 174 176 179 184 192 195 197 189 191 197 197 214 212 204 201 188 196 208 210 218 227 228 214 183 228 266 230 220 228 208 206 178 124 142 139 119 123 131 135 146 157 165 164 160 153 149 148 141 137 136 132 127 128 137 128
126 120 115 119 136 150 154 159 155 153 155 149 148 146 148 150 139 143 154 157 168 172 173 179 177 180 183 184 191 186 175 179 185 189 190 193 196 195 202 201 201 218 221 212 193 184 192 200 207 218 229 234 218 199 240 288 265 223 218 213 210 200 150 129 130 140 150 148 144 142 148 156 159 163 157 152 150 140 132 134 131 127 127 131 139
126 119 113 123 146 155 152 154 156 160 162 153 148 143 139 140 140 147 160 166 176 182 180 179 173 174 180 180 182 185 186 186 190 195 188 185 203 207 203 207 212 217 222 213 188 183 192 198 206 219 232 227 216 224 265 303 285 255 231 214 204 188 144 127 139 170 164 149 148 142 141 148 150 155 152 149 150 142 132 129 125 126 129 125 128
130 125 122 136 158 160 153 146 147 155 159 149 144 144 140 141 142 148 161 170 179 184 178 170 165 170 173 170 180 192 192 193 199 198 183 185 203 203 199 207 211 215 221 208 188 185 191 204 214 223 232 218 213 230 263 310 285 274 312 0 146 130 117 127 142 162 160 153 152 145 140 141 140 146 145 140 142 140 136 135 129 127 133 134 131
135 139 136 146 159 158 151 145 145 146 148 145 142 143 143 148 151 154 162 168 178 180 170 162 161 171 176 177 187 192 191 199 202 193 187 200 205 199 200 207 204 211 219 200 187 189 189 202 217 222 227 218 223 234 248 325 349 317 333 23 83 100 108 120 129 138 150 153 152 149 145 145 135 132 136 134 135 138 139 137 128 124 128 136 139
145 150 144 148 153 153 151 152 149 142 143 144 142 146 148 151 155 162 168 169 172 171 164 155 160 180 179 182 188 183 189 196 198 194 196 208 213 210 209 207 200 205 210 192 183 191 194 201 213 222 230 229 230 233 222 226 26 14 350 21 64 81 101 109 117 121 127 139 152 154 149 154 146 137 137 132 133 134 134 132 126 124 125 131 142
158 159 147 147 152 152 150 154 154 146 144 143 142 148 149 151 158 165 166 168 166 149 142 143 156 188 172 181 189 175 177 183 190 196 197 204 213 214 204 199 200 198 195 185 179 190 195 198 205 217 236 250 244 243 12 14 10 36 8 354 67 84 95 101 111 114 109 119 141 152 150 152 148 143 144 141 143 138 135 138 139 136 136 140 145
161 163 152 150 153 153 148 151 155 149 144 142 143 146 144 147 156 160 159 160 154 118 110 126 147 173 171 187 187 171 173 178 181 186 196 205 209 206 194 194 197 190 181 178 176 184 194 197 199 209 227 248 282 300 9 56 50 67 237 254 119 108 98 100 110 114 112 114 126 139 141 142 141 144 150 149 148 145 142 145 148 148 149 156 152
161 163 155 150 150 155 153 149 150 148 143 141 142 142 140 144 145 146 145 132 109 90 91 116 149 159 169 179 176 171 177 175 173 180 193 200 197 190 188 189 192 190 183 177 178 183 192 195 187 192 206 218 0 355 104 101 85 99 213 234 168 127 109 110 113 116 120 123 134 141 139 147 152 144 144 144 146 149 145 144 151 153 145 135 128
165 163 155 152 148 153 155 147 146 147 143 140 141 141 142 142 136 130 126 117 107 113 146 168 164 161 160 164 163 164 172 170 170 179 189 194 187 175 174 179 184 189 186 178 183 189 191 190 179 176 171 135 98 89 109 100 98 116 177 218 171 113 113 115 112 117 125 133 152 157 153 159 158 152 149 145 146 155 152 148 156 155 138 115 105
166 160 155 155 146 148 149 143 145 145 143 141 140 142 139 132 125 126 137 144 151 161 168 164 152 152 146 144 145 147 159 167 172 175 180 186 184 176 174 180 182 187 190 182 184 191 189 186 184 185 168 134 122 118 115 106 113 134 166 230 264 82 105 114 108 115 126 137 146 147 153 149 144 150 153 148 148 153 150 148 153 150 135 114 101
163 160 158 155 145 143 142 140 144 143 142 140 137 138 129 124 132 148 156 152 158 163 160 150 138 134 127 124 127 129 137 148 157 163 169 176 180 181 180 184 186 187 194 189 184 188 185 180 182 184 163 147 146 152 161 142 135 144 146 207 315 61 93 96 101 113 123 136 136 131 135 130 133 138 135 143 148 133 124 135 139 133 127 112 103
159 160 156 151 143 139 135 136 139 140 145 141 139 137 123 140 156 153 152 149 155 154 144 140 139 137 130 124 123 124 134 136 139 146 155 169 178 183 179 183 188 188 193 191 186 189 186 177 172 166 157 162 183 177 180 172 144 135 132 141 301 40 84 69 78 90 95 123 132 129 134 130 124 127 122 125 131 119 111 113 105 96 99 97 99
156 156 149 143 138 135 130 132 135 139 145 141 142 136 120 140 146 138 145 141 131 130 131 137 139 142 138 131 125 123 130 126 132 140 134 151 169 176 177 184 191 193 200 192 181 189 190 181 172 173 176 169 191 197 187 187 160 139 127 113 43 356 104 91 88 73 67 107 116 115 133 141 132 129 125 115 114 114 105 96 88 87 96 97 100
146 142 137 132 130 130 128 129 132 135 138 133 131 127 121 123 114 122 133 126 122 130 138 140 144 149 142 136 130 123 127 120 122 131 123 136 154 160 170 179 187 194 205 198 181 182 189 188 182 185 193 179 188 210 185 175 168 149 136 132 123 339 153 134 116 70 51 99 107 109 126 129 128 132 129 115 104 101 96 94 93 93 98 99 104
102 100 93 104 115 117 118 119 118 124 130 126 122 125 124 121 104 117 127 133 148 156 152 149 154 151 142 138 136 128 126 116 107 114 116 129 141 154 171 170 173 183 194 197 185 180 183 190 191 188 195 186 172 196 195 168 158 155 161 162 141 143 145 132 122 82 73 92 94 109 127 122 125 135 130 121 114 109 102 98 94 89 90 86 88
77 94 97 104 115 115 113 115 119 124 128 127 127 130 129 130 142 146 148 164 165 156 155 155 149 141 137 134 131 129 124 114 108 112 115 118 122 135 162 165 169 177 178 182 182 187 185 184 189 184 187 184 163 174 207 184 159 170 176 150 97 134 145 128 125 137 114 93 77 81 96 102 109 116 112 110 112 115 111 103 97 95 93 85 76
99 116 121 124 131 136 134 130 130 129 128 129 132 137 136 133 261 266 188 170 156 144 148 149 138 136 141 140 136 133 128 122 118 116 114 114 116 113 123 151 164 176 171 162 163 181 177 162 161 155 166 180 158 158 178 180 183 184 171 144 112 129 139 124 141 141 121 123 91 76 78 86 94 98 100 105 107 113 117 113 110 107 106 106 100
124 135 139 139 140 144 142 136 133 131 132 133 137 143 138 126 277 287 238 148 143 151 151 146 141 144 149 146 141 133 127 121 119 118 114 108 111 109 105 93 72 100 129 128 132 142 139 142 136 131 145 151 143 150 159 171 183 170 164 157 129 134 134 125 148 134 102 120 116 86 92 91 90 98 108 113 109 111 117 119 119 113 111 113 105
127 141 146 148 147 147 144 139 139 143 142 142 148 147 134 134 176 263 231 147 155 164 149 144 145 149 154 145 137 137 136 126 115 109 109 104 99 99 101 94 69 72 91 98 105 108 108 121 124 128 130 125 132 140 142 150 161 158 160 142 134 160 142 118 157 134 98 110 117 126 129 111 103 120 126 121 114 110 110 112 114 111 107 96 86
124 151 158 159 155 152 150 145 147 155 153 152 157 146 136 151 170 192 185 163 166 160 148 151 154 155 161 158 153 147 136 129 125 110 103 103 103 102 100 97 88 82 89 98 106 101 92 96 106 114 112 113 125 129 125 125 128 134 139 129 144 180 161 150 184 164 145 149 135 141 142 131 136 150 147 137 130 124 115 110 110 111 112 90 74
Height
754 753 755 756 759 760 762 763 765 766 768 769 770 772 774 776 777 779 780 781 783 785 786 787 789 790 791 792 793 794 795 796 797 798 799 800 801 802 802 804 804 806 806 807 809 809 811 811 812 813 813 814 814 814 814 815 815 815 815 816 816 816 816 816 816 816 817 818 819 819 820 820 820 820 819 819 820 820 821 821 822 822 822 821 821
753 754 755 757 759 760 763 763 766 767 769 770 771 773 775 777 778 780 781 783 784 785 787 789 790 791 793 793 795 795 796 797 798 799 800 801 802 803 804 805 805 807 808 809 810 810 812 812 813 813 814 814 815 815 815 815 815 816 816 816 817 817 817 817 817 817 818 818 819 819 820 821 821 821 821 821 821 822 822 822 823 823 823 823 822
753 755 756 758 760 761 763 764 767 768 770 771 773 774 776 778 779 781 782 784 785 786 788 789 791 792 794 795 796 796 797 798 799 800 802 803 804 805 805 806 807 808 809 810 811 812 813 813 814 814 815 815 816 816 816 816 816 817 817 817 817 818 818 818 818 818 819 819 820 820 820 822 822 822 822 822 823 823 824 824 824 825 825 825 824
754 756 758 759 761 763 764 766 768 769 771 772 774 776 777 779 780 782 783 785 786 788 789 790 792 793 795 796 797 798 798 799 801 802 803 804 805 806 807 808 809 809 810 811 812 813 814 815 815 815 816 816 817 817 817 817 817 818 818 818 818 818 819 819 819 819 820 821 821 821 821 822 824 824 823 824 824 825 825 825 826 826 826 826 826
755 757 759 760 762 764 765 767 769 770 772 773 775 777 779 780 782 783 785 786 787 789 790 792 793 794 796 797 798 799 800 801 802 803 804 806 806 807 808 809 810 811 812 813 814 815 816 816 816 817 817 817 818 818 819 818 818 819 818 819 819 819 819 819 820 820 821 822 822 823 823 823 825 825 825 825 825 826 827 827 827 827 828 827 827
756 757 760 761 764 765 767 768 770 772 773 775 777 778 780 781 783 784 786 787 789 790 792 793 795 796 797 798 799 800 801 802 803 805 806 807 808 809 810 811 812 812 813 814 815 816 817 818 818 818 818 819 819 819 820 820 820 819 819 819 819 820 820 820 820 821 822 822 823 825 825 825 826 827 827 826 827 827 828 828 828 829 829 829 829
756 758 761 762 765 766 768 770 771 773 775 777 778 780 781 783 784 786 787 789 790 791 793 795 796 798 799 800 801 802 803 804 805 806 807 809 809 811 812 813 813 814 815 816 817 817 818 819 819 820 820 820 820 820 820 821 821 820 820 820 820 821 821 821 821 822 822 823 824 826 826 826 827 828 828 828 828 829 829 829 829 830 830 830 830
757 760 762 763 766 767 770 771 773 775 777 779 780 781 783 784 785 787 789 790 792 793 794 796 798 799 800 801 802 804 805 806 807 807 809 810 811 812 813 814 815 816 816 817 818 818 819 820 821 821 820 821 821 821 821 822 822 821 821 821 821 821 822 822 822 823 823 824 826 827 827 827 828 829 830 829 829 830 830 830 830 831 831 831 831
759 761 763 765 767 769 771 772 775 776 778 780 781 783 784 785 787 788 790 791 793 794 796 797 799 801 802 803 804 805 806 807 808 809 810 810 812 813 814 815 816 817 817 818 819 819 820 821 822 822 821 822 822 822 822 822 823 822 822 822 822 822 822 822 823 823 824 826 827 827 827 828 829 830 831 830 831 831 831 831 831 832 832 832 832
760 762 765 766 768 771 772 774 776 778 780 781 783 784 785 787 788 790 791 793 794 796 798 799 800 802 803 805 806 807 807 808 809 810 811 811 812 813 815 815 816 817 818 819 819 820 821 822 823 822 823 823 823 823 823 823 823 823 823 823 823 823 823 824 824 824 825 827 827 827 829 829 830 831 832 832 832 832 832 832 832 833 833 833 833
761 764 766 767 770 772 773 776 777 780 781 783 784 785 787 788 789 791 792 794 796 797 799 800 802 803 805 806 807 808 809 809 810 811 812 813 813 814 815 816 817 818 818 820 820 821 822 823 823 823 824 824 824 824 824 825 824 824 824 824 823 824 824 825 825 824 827 828 828 828 829 830 831 833 833 833 833 833 833 833 834 834 834 834 835
762 765 766 769 771 773 775 777 779 781 783 784 786 787 788 789 791 792 794 795 797 799 800 802 803 805 806 807 808 809 810 810 812 813 813 814 815 815 816 817 818 818 819 820 821 822 823 823 823 824 824 825 825 825 825 825 825 825 825 825 824 824 824 825 825 825 828 829 828 829 830 832 833 834 834 834 834 834 835 835 835 835 836 835 836
763 765 767 770 772 775 777 779 781 783 784 786 787 788 790 791 793 794 795 797 798 800 801 803 804 806 807 808 809 810 811 812 813 814 815 815 816 817 817 819 819 819 820 821 822 823 823 824 824 824 825 825 826 826 826 826 826 826 825 825 825 825 825 825 825 826 829 829 828 830 831 833 834 835 835 835 835 836 836 836 836 836 836 836 837
763 766 768 771 774 777 778 781 783 784 786 787 788 789 791 792 794 795 797 798 800 801 802 804 805 806 807 808 810 811 812 813 814 815 817 817 817 818 819 820 820 820 821 822 823 823 824 824 825 825 825 825 826 826 827 827 827 827 826 826 826 826 826 826 826 828 830 829 828 830 832 834 835 836 836 836 836 836 837 837 837 837 837 837 838
764 767 770 772 775 779 780 783 784 786 787 787 789 790 792 793 796 797 799 800 801 803 804 805 806 807 808 809 811 812 813 814 816 816 818 819 819 819 820 821 821 822 822 822 823 824 825 825 825 825 825 826 826 827 827 827 827 828 827 827 827 827 827 826 826 829 830 829 829 831 833 835 836 837 837 837 837 837 838 838 838 838 838 838 838
766 769 771 773 776 780 782 784 785 786 787 788 790 791 793 794 797 799 800 801 802 804 805 806 807 808 809 810 812 813 815 815 817 818 819 820 820 821 821 822 822 823 823 823 824 824 825 825 825 825 826 826 826 827 827 828 828 828 828 828 828 828 828 827 827 829 830 829 829 831 833 835 837 838 838 838 838 838 839 838 839 839 839 839 839
769 771 773 776 779 781 784 786 786 787 788 790 791 792 794 796 798 799 801 802 803 805 806 808 808 809 811 812 813 814 815 817 818 819 821 821 821 822 822 822 823 823 823 824 824 825 826 826 826 826 826 826 827 827 827 828 828 829 829 828 828 828 829 828 828 830 830 829 830 832 833 835 837 838 839 839 839 839 839 839 839 840 840 840 840
771 773 775 778 781 784 785 786 787 788 789 791 793 795 796 797 799 800 802 803 804 806 807 809 810 811 813 814 815 815 817 818 819 821 822 822 822 823 823 824 824 824 824 824 825 825 826 826 826 826 826 826 827 827 828 828 829 829 829 829 829 829 829 829 830 831 830 830 831 832 833 835 837 838 839 839 839 839 840 840 840 840 840 840 841
772 774 777 781 783 785 784 785 788 789 790 792 795 797 798 798 800 802 803 804 805 807 808 810 811 813 814 815 817 817 819 819 820 822 823 823 823 824 824 825 825 825 825 825 826 826 826 826 827 827 827 827 827 828 828 828 829 829 829 829 829 829 830 830 831 831 830 831 832 832 834 835 836 838 840 840 840 840 840 840 841 841 841 841 841
773 776 778 781 781 782 782 786 788 789 791 793 797 798 799 799 800 803 804 805 806 807 809 810 812 814 815 817 819 820 821 821 822 823 824 824 824 824 825 825 826 826 826 826 826 827 827 828 827 827 827 828 828 828 829 829 830 830 830 830 830 830 830 830 831 831 830 832 833 833 835 835 837 838 840 840 840 840 840 841 841 841 841 841 842
774 777 778 779 778 780 783 788 788 790 793 795 798 798 799 800 801 803 804 806 807 809 810 811 813 815 817 818 820 822 823 822 823 824 824 825 825 825 825 826 826 826 827 827 828 828 828 829 828 829 828 829 829 829 830 830 830 830 831 830 831 830 830 832 832 831 831 833 833 834 835 835 837 839 840 841 841 841 841 841 842 842 842 842 842
773 776 778 778 779 782 785 788 788 791 794 796 799 798 798 799 801 802 804 806 807 810 810 812 814 815 818 819 820 822 822 822 823 825 825 825 825 825 825 826 827 827 828 829 829 829 829 830 829 829 829 830 830 830 831 831 831 831 831 831 831 831 831 832 832 831 831 833 834 835 836 836 838 839 840 841 841 842 842 842 842 842 843 842 843
771 775 777 778 780 784 786 787 788 791 794 797 799 797 797 799 801 802 803 806 808 810 811 813 814 815 818 818 820 820 820 821 823 824 824 824 825 825 826 826 828 828 829 830 830 830 830 830 830 830 830 830 831 831 831 831 832 831 831 831 831 831 832 833 832 831 832 833 834 835 836 837 838 839 840 841 842 842 842 843 842 843 843 843 843
771 773 775 779 781 784 787 787 788 791 794 796 797 797 798 799 800 802 803 806 808 809 811 813 813 815 816 816 818 818 820 821 822 823 823 824 825 825 826 827 828 829 829 830 829 829 829 830 830 830 830 830 831 831 831 832 832 831 832 831 832 832 833 833 832 832 833 833 834 836 836 837 838 839 841 842 842 842 843 843 843 843 844 844 844
770 773 775 778 781 784 786 786 788 791 794 796 797 797 799 799 800 802 803 805 807 809 811 813 813 814 814 814 815 817 819 821 821 822 822 824 825 825 826 827 827 827 827 826 826 826 827 829 830 831 831 830 830 830 830 831 831 831 831 831 832 832 833 833 832 832 833 834 835 836 837 837 839 840 841 842 843 843 843 843 843 844 844 844 845
770 773 775 778 781 783 783 784 789 793 795 796 797 798 799 800 801 802 804 806 808 810 812 813 813 813 813 813 813 815 817 818 819 820 822 823 825 825 826 826 826 825 824 823 823 824 827 829 830 831 831 830 830 830 830 831 831 831 831 832 832 832 833 833 832 832 834 835 836 837 837 838 839 840 841 842 843 843 843 843 843 844 844 845 845
769 772 775 778 780 782 782 784 789 791 793 794 795 798 800 800 801 802 804 807 810 811 812 812 813 813 813 813 813 814 814 815 817 819 822 823 825 825 826 826 825 825 824 823 823 824 826 827 829 830 830 829 830 830 830 830 831 831 832 832 832 832 833 833 833 833 835 835 836 837 838 838 840 841 842 843 843 844 844 844 844 845 845 846 846
768 771 774 777 780 781 782 785 788 790 792 794 795 798 799 800 801 803 806 809 810 810 810 811 813 813 813 814 814 814 815 816 818 820 822 824 825 826 827 827 826 825 824 824 824 825 826 826 828 829 829 829 829 829 829 829 830 831 831 831 832 832 833 834 833 834 836 836 837 838 838 839 840 841 842 843 844 844 845 845 845 846 846 847 847
768 771 774 778 780 781 784 787 789 791 793 794 796 798 799 800 802 805 806 807 808 808 809 811 812 814 814 815 815 816 816 818 819 821 823 824 825 826 827 827 827 825 824 825 825 825 826 827 828 829 828 828 827 828 828 828 829 830 831 831 832 832 832 834 835 836 837 837 838 838 839 840 841 842 842 843 844 844 845 846 846 847 847 847 847
769 772 777 781 782 783 785 787 789 791 792 793 795 797 799 800 803 806 806 806 807 808 809 810 813 814 815 815 816 816 817 818 820 821 823 824 824 825 826 826 826 826 825 826 826 826 826 827 828 828 827 827 827 826 827 828 828 829 830 831 831 832 833 835 836 838 839 839 839 839 840 841 841 842 843 844 844 845 846 846 847 848 848 848 848
769 773 779 783 786 787 787 787 789 790 791 793 794 796 798 800 803 804 804 805 807 808 809 811 813 814 814 815 815 816 817 818 819 821 822 823 824 824 825 826 826 826 826 826 826 826 825 826 827 827 826 826 826 826 826 827 828 829 830 831 831 831 833 835 837 839 840 840 839 839 841 842 842 843 843 844 845 846 846 847 847 848 848 849 849
770 773 778 784 788 788 787 786 787 788 790 792 793 796 798 801 804 804 804 806 806 807 809 811 811 812 813 814 815 816 817 818 819 820 822 823 824 824 825 825 825 825 825 825 825 825 824 825 825 826 826 826 826 826 827 827 828 830 831 831 831 831 832 835 837 838 839 840 840 841 842 842 843 844 844 845 845 846 847 847 848 849 849 850 850
771 776 780 784 785 784 785 786 785 787 789 790 792 795 798 802 804 805 806 806 806 807 808 809 810 812 813 814 815 816 817 818 819 821 822 824 823 823 824 824 824 823 824 824 824 824 823 824 825 825 825 825 826 826 827 828 829 830 832 832 832 832 833 835 837 836 837 840 841 842 842 843 844 844 845 845 846 846 847 848 849 849 850 851 851
772 777 781 782 781 781 784 786 787 788 789 790 791 793 796 800 802 804 805 805 805 805 807 808 810 811 813 814 815 816 817 818 819 821 823 823 822 823 824 824 823 823 823 823 824 823 823 823 824 824 825 825 826 827 828 829 829 830 833 834 834 834 834 836 838 837 839 840 841 842 843 844 844 845 846 846 847 847 848 849 849 850 850 851 852
772 775 778 779 779 780 783 785 787 789 790 791 790 791 793 796 799 801 802 803 803 804 806 807 809 811 813 814 816 816 817 818 819 821 822 822 821 822 823 823 823 823 823 823 823 823 823 823 823 825 826 826 827 828 829 831 832 834 837 838 837 837 837 838 839 839 840 841 842 843 844 844 845 846 846 847 847 848 848 849 849 850 850 851 852
770 773 776 777 778 779 781 784 787 789 791 792 790 791 793 796 798 799 800 800 801 802 804 806 809 811 813 815 816 817 817 818 819 820 821 820 819 821 821 822 823 822 822 822 822 822 822 823 824 825 826 827 827 828 830 833 836 839 842 841 838 838 838 839 840 840 841 842 843 844 844 845 846 847 847 847 848 848 848 849 849 850 850 851 851
768 771 773 774 775 778 780 783 785 788 790 792 791 793 795 797 798 799 799 799 801 803 804 806 809 811 813 815 815 816 817 818 818 819 819 818 817 820 821 821 822 821 822 822 822 822 822 823 824 826 827 827 828 829 831 834 836 839 842 841 838 839 839 839 840 840 841 842 843 844 844 845 846 847 847 848 848 848 848 848 849 850 850 851 851
766 768 770 772 773 777 781 783 785 786 789 791 792 793 796 798 799 799 799 800 802 803 804 806 809 812 814 815 816 817 817 818 818 819 818 817 817 820 820 820 820 820 821 821 822 822 822 823 824 826 826 827 828 830 831 834 835 837 840 840 839 839 838 838 840 841 842 842 842 843 844 845 846 846 847 848 849 849 849 849 849 850 850 851 851
764 766 768 771 774 777 780 783 785 786 788 790 791 793 795 798 799 800 800 800 802 803 805 807 810 813 814 816 817 818 818 818 818 818 818 817 817 819 819 819 819 819 820 820 821 822 822 823 824 825 826 827 829 830 831 834 835 838 841 839 838 838 838 839 840 841 842 842 842 843 843 844 845 846 847 848 849 849 849 849 849 850 851 851 852
761 764 768 771 774 776 778 782 784 786 788 790 792 793 796 798 799 800 801 801 803 805 807 810 812 814 815 817 818 818 819 819 818 818 817 817 817 818 818 818 819 819 819 820 820 821 822 823 824 826 827 827 829 829 832 834 835 839 842 838 838 840 838 839 841 841 843 842 842 842 843 844 845 847 848 848 849 849 848 849 849 850 851 852 852
760 763 767 770 772 774 777 780 783 786 788 790 792 794 796 798 799 801 803 804 806 808 810 812 813 815 816 817 818 818 819 819 819 818 817 817 817 818 818 818 818 819 820 820 820 821 822 823 824 825 827 827 828 830 831 833 835 841 844 838 837 840 839 839 841 841 842 842 842 843 843 844 846 847 848 848 849 849 849 849 849 850 851 852 852
758 762 765 768 771 774 777 780 783 786 789 791 793 795 797 798 801 803 806 807 809 810 811 812 814 815 816 817 818 819 819 819 819 818 818 817 817 817 818 818 818 819 820 820 821 821 822 823 824 825 827 827 828 830 831 833 836 840 842 838 837 839 839 839 840 841 842 842 843 843 844 845 846 848 849 849 849 849 849 849 850 851 851 852 852
757 761 764 768 771 775 779 781 784 787 790 793 794 797 799 801 804 806 807 808 809 810 812 813 814 816 817 818 819 819 820 820 820 819 819 818 818 817 818 818 818 818 819 819 820 821 821 822 824 825 827 827 828 830 831 832 834 836 838 838 837 839 840 840 840 842 842 842 843 844 845 846 846 848 849 849 849 849 849 850 851 851 852 852 852
758 763 767 769 773 778 781 783 786 789 792 795 797 800 802 805 808 808 808 808 809 811 813 814 815 816 817 819 819 820 821 821 821 821 820 819 819 818 818 818 818 818 818 819 820 820 821 822 823 825 826 827 828 829 831 832 833 834 836 838 838 839 841 842 841 842 843 843 845 845 847 847 847 849 850 849 849 850 850 851 852 852 852 853 853
762 768 772 773 777 781 783 785 788 791 794 796 800 802 804 809 812 810 809 810 811 813 814 815 816 817 818 819 820 821 822 822 822 822 821 821 820 819 818 818 818 818 818 818 819 819 820 822 823 825 826 827 827 828 831 833 833 833 834 836 838 840 841 841 842 843 843 844 846 847 847 848 848 850 850 849 849 850 850 851 853 853 853 854 854
768 774 778 779 782 786 785 787 789 792 796 797 800 802 803 809 813 811 811 812 813 814 815 816 816 817 818 819 820 821 822 823 823 823 823 822 821 820 819 818 818 818 818 818 819 820 821 822 823 825 826 827 827 827 829 830 831 833 834 835 836 837 837 839 842 844 844 845 847 848 849 849 849 850 850 850 851 850 851 852 853 854 854 854 854
774 778 781 782 785 788 787 787 789 792 794 796 799 802 802 806 811 813 813 814 814 815 816 816 817 817 818 819 820 821 822 823 823 823 823 822 821 821 819 819 818 818 818 818 819 820 821 822 823 825 826 827 828 828 827 827 829 832 834 835 835 835 836 838 840 842 844 846 848 848 849 850 850 851 851 852 852 852 852 853 853 854 855 855 855
774 777 778 780 782 784 784 785 788 790 793 795 797 800 801 803 810 814 814 814 814 815 816 816 817 817 818 819 819 820 821 822 823 823 823 823 822 821 820 819 818 817 818 818 819 820 821 822 823 824 825 827 828 829 828 828 830 832 834 836 836 837 837 838 838 840 842 846 848 849 849 850 851 852 852 853 853 853 854 854 855 855 855 856 855
770 772 774 776 778 779 781 783 786 789 791 793 795 797 798 801 810 816 815 814 814 815 815 816 816 817 818 818 819 819 820 821 822 823 823 823 822 821 820 818 818 817 818 818 819 820 821 823 823 824 825 826 827 829 829 829 831 832 833 835 836 837 837 838 838 839 841 844 848 850 850 851 851 853 854 854 854 855 855 855 855 856 856 857 856
774 773 774 775 776 778 780 781 783 786 789 792 794 795 794 798 808 814 814 813 814 815 815 815 816 817 818 818 818 819 819 820 821 822 822 822 821 820 820 819 818 818 818 819 820 821 822 823 823 824 825 826 828 829 829 829 830 831 832 835 836 836 837 838 839 840 841 843 847 849 850 851 852 854 855 855 855 856 856 856 856 857 857 858 858
780 779 777 775 774 775 777 778 779 781 785 789 792 793 793 798 804 809 811 812 814 814 814 815 816 817 817 818 818 818 819 820 821 822 822 822 821 820 820 819 819 819 819 820 820 821 822 823 824 825 825 826 827 828 829 829 829 830 832 834 835 835 836 838 838 839 841 843 845 847 849 851 852 853 854 855 856 856 857 858 858 858 858 858 859